Regional Weather Roundup
Issued by NWS Cleveland, OH

Home | Current Version | Previous Version | Text Only | Print | Product List | Glossary Off
Versions: 1 2 3 4 5 6 7 8 9 10 11 12 13 14 15 16 17 18 19 20 21 22 23 24 25 26 27 28 29 30 31 32 33 34 35 36 37 38 39 40 41 42 43 44 45 46 47 48 49 50

000
ASUS41 KCLE 302310
RWRCLE
OHIO REGIONAL WEATHER ROUNDUP
NATIONAL WEATHER SERVICE WILMINGTON, OH
700 PM EDT SAT JUL 30 2016

NOTE: "FAIR" INDICATES FEW OR NO CLOUDS BELOW 12,000 FEET WITH NO
SIGNIFICANT WEATHER AND/OR OBSTRUCTIONS TO VISIBILITY.

OHZ001>008-015>018-024>027-034-035-043-044-310000-
   NORTHWEST OHIO

CITY           SKY/WX    TMP DP  RH WIND       PRES   REMARKS
DEFIANCE       FAIR      82  67  60 VRB3      29.93F
FINDLAY        FAIR      83  65  54 NE6       29.92F
TOLEDO EXPRESS PTSUNNY   75  70  84 E13       29.94S
TOLEDO EXEC    PTSUNNY   76  71  85 E8        29.94F
LIMA           FAIR      81  68  64 N6        29.94S
$$

OHZ009>014-019>023-028>033-038-089-310000-
   NORTHEAST OHIO

CITY           SKY/WX    TMP DP  RH WIND       PRES   REMARKS
CLE-HOPKINS    FAIR      77  68  73 CALM      29.96S
CLE-LAKEFRONT  FAIR      76  67  73 CALM      29.93S
CUY CO. ARPT   PTSUNNY   73  70  88 SE5       29.96S
LORAIN-ELYRIA  FAIR      76  68  76 CALM      29.95R
ASHTABULA      FAIR      75  71  87 E6        29.96F
AKRON-CANTON   PTSUNNY   74  67  78 SE10      29.95F
WOOSTER        FAIR      73  69  87 CALM      29.96R
MANSFIELD      FAIR      78  64  61 S5        29.96F
YOUNGSTOWN     PTSUNNY   73  68  84 CALM      29.96R
$$

OHZ042-051>053-060>062-070>072-077>081-310000-
  SOUTHWEST OHIO

CITY           SKY/WX    TMP DP  RH WIND       PRES   REMARKS
CINC-COVINGTON PTSUNNY   82  71  69 SW5       29.96R
CINC-LUNKEN    PTSUNNY   81  73  76 S8        29.94R
HAMILTON       FAIR      86  65  49 W8        29.94S
DAYTON         FAIR      83  67  58 NW6       29.95F
WRIGHT-PAT AFB FAIR      85  66  54 W8        29.93S
DAYTON GENERAL FAIR      85  64  49 W9        29.94S
WILMINGTON     FAIR      82  69  64 SW9       29.95R
$$

OHZ036-037-039>041-045>050-054>059-063>069-073>076-082>088-310000-
  CENTRAL AND SOUTHEAST OHIO

CITY           SKY/WX    TMP DP  RH WIND       PRES   REMARKS
COLUMBUS       FAIR      84  65  52 SW10      29.91S
OSU AIRPORT    PTSUNNY   83  68  60 W8        29.92S
BOLTON FIELD   SUNNY     82  70  65 MISG        N/A
RICKENBACK AFB FAIR      84  67  57 SW7       29.92F
NEWARK         CLOUDY    73  69  87 NE7       29.94R
MARION         FAIR      78  69  73 E7        29.95S
LANCASTER      FAIR      85  69  58 W7        29.93F
ZANESVILLE     CLOUDY    81  67  62 N5        29.93S
NEW PHILLY     LGT RAIN  77  70  79 VRB3      29.95F
$$




USA.gov is the U.S. government's official web portal to all federal, state and local government web resources and services.